This demonstration page uses our WeatherBlox Daily Observations layout. Learn more.

Left ArrowRight Arrow

40.97296, -117.73568

Hourly Observations for August 13, 2016

Temp ( °F °C ) Dew Point ( °F °C ) Humidity (%) Winds ( mph kmh ) Pressure ( in mb ) Visibility ( mi km ) Precip ( " mm )
12:56 am 00:56 Clear 73 22.8 26 -3.3 17 17 NE 12 19 29.97 1015 10 16 0.00 0.00
1:56 am 01:56 Clear 74 23.3 32 0 21 21 ENE 10 17 29.95 1014 10 16 0.00 0.00
2:56 am 02:56 Clear 68 20 33 0.6 27 27 NE 6 9 29.97 1015 10 16 0.00 0.00
3:56 am 03:56 Clear 53 11.7 23 -5 31 31 ESE 7 11 30.00 1016 10 16 0.00 0.00
4:56 am 04:56 Clear 50 10 23 -5 35 35 SE 6 9 30.01 1016 10 16 0.00 0.00
5:56 am 05:56 Clear 50 10 23 -5 35 35 SE 3 6 30.03 1017 10 16 0.00 0.00
6:56 am 06:56 Sunny 53 11.7 24 -4.4 32 32 Calm 30.04 1017 10 16 0.00 0.00
7:56 am 07:56 Sunny 65 18.3 24 -4.4 21 21 Calm 30.04 1017 10 16 0.00 0.00
8:56 am 08:56 Sunny 72 22.2 35 1.7 26 26 Calm 30.06 1018 10 16 0.00 0.00
9:56 am 09:56 Sunny 79 26.1 34 1.1 20 20 ENE 5 7 30.05 1018 10 16 0.00 0.00
10:56 am 10:56 Sunny 86 30 31 -0.6 14 14 NNE 5 7 30.04 1017 10 16 0.00 0.00
11:56 am 11:56 Sunny 91 32.8 27 -2.8 10 10 N 5 7 30.01 1016 10 16 0.00 0.00
12:56 pm 12:56 Sunny 94 34.4 26 -3.3 9 9 W 5 7 29.96 1014 10 16 0.00 0.00
1:56 pm 13:56 Sunny 95 35 25 -3.9 8 8 VRB 6 9 29.94 1014 10 16 0.00 0.00
2:56 pm 14:56 Sunny 97 36.1 26 -3.3 8 8 NW 10 17 29.92 1013 10 16 0.00 0.00
3:56 pm 15:56 Sunny 95 35 24 -4.4 8 8 NW 9 15 29.93 1014 10 16 0.00 0.00
4:56 pm 16:56 Sunny 96 35.6 24 -4.4 7 7 NNW 7 11 29.92 1013 10 16 0.00 0.00
5:56 pm 17:56 Sunny 96 35.6 23 -5 7 7 NW 7 11 29.90 1013 10 16 0.00 0.00
6:56 pm 18:56 Sunny 94 34.4 22 -5.6 7 7 NW 3 6 29.89 1012 10 16 0.00 0.00
7:56 pm 19:56 Clear 85 29.4 24 -4.4 11 11 NW 3 6 29.89 1012 10 16 0.00 0.00
8:56 pm 20:56 Clear 72 22.2 28 -2.2 19 19 SE 5 7 29.92 1013 10 16 0.00 0.00
9:56 pm 21:56 Clear 70 21.1 27 -2.8 20 20 SE 3 6 29.91 1013 10 16 0.00 0.00
10:56 pm 22:56 Clear 69 20.6 23 -5 17 17 SSE 12 19 29.89 1012 10 16 0.00 0.00
11:56 pm 23:56 Clear 61 16.1 26 -3.3 26 26 SE 7 11 29.90 1012 10 16 0.00 0.00

Powered by AerisWeather